Simultaneous Nadir Overpasses (SNOs) Predictions

Prediction of SNOs between NOAA-20 and METOP-B Satellite Orbit:

Table of predicted SNOs for the next 14.0 days since TLE Epoch: 2/12/2022
Index Date (NOAA-20) Time (NOAA-20) Lat,Lon (NOAA-20) SZA (NOAA-20 ) Date (METOP-B) Time (METOP-B) Lat,Lon (METOP-B) SZA (METOP-B ) Distance(km) Time Diff (sec)
1 02/15/2022 07:11:11 73.52, 62.30 86.52 02/15/2022 07:12:17 73.43, 65.25 86.25 93.64 66
2 02/15/2022 08:01:53 -73.41,-130.14 93.62 02/15/2022 08:03:00 -73.40,-127.51 93.80 83.62 67
3 02/15/2022 08:52:35 73.22, 37.60 86.16 02/15/2022 08:53:44 73.16, 39.30 85.99 55.01 69
4 02/15/2022 09:43:17 -73.11,-154.85 93.97 02/15/2022 09:44:28 -73.07,-153.56 94.11 42.04 71
5 02/15/2022 10:33:59 72.92, 12.88 85.80 02/15/2022 10:35:12 72.83, 13.27 85.68 15.53 73
6 02/15/2022 11:24:41 -72.81,-179.58 94.33 02/15/2022 11:25:55 -72.80,-179.48 94.37 3.77 74
7 02/15/2022 12:15:26 72.76, -12.17 85.61 02/15/2022 12:16:35 72.76, -12.22 85.59 1.62 69
8 02/15/2022 13:06:10 -72.76, 155.15 94.41 02/15/2022 13:07:17 -72.78, 155.13 94.41 1.57 67
9 02/15/2022 13:56:56 72.77, -37.55 85.58 02/15/2022 13:57:56 72.79, -37.50 85.59 3.25 60
10 02/15/2022 14:47:40 -72.76, 129.77 94.43 02/15/2022 14:48:39 -72.76, 129.75 94.46 1.15 59
11 02/15/2022 15:38:26 72.77, -62.93 85.56 02/15/2022 15:39:18 72.77, -62.89 85.55 1.32 52
12 02/15/2022 16:29:10 -72.77, 104.39 94.46 02/15/2022 16:30:00 -72.78, 104.47 94.46 3.33 50
13 02/15/2022 17:19:56 72.77, -88.30 85.54 02/15/2022 17:20:40 72.75, -88.27 85.50 2.41 44
14 02/15/2022 18:10:40 -72.77, 79.02 94.48 02/15/2022 18:11:22 -72.76, 79.08 94.50 2.25 42
15 02/15/2022 19:01:25 72.72,-113.57 85.46 02/15/2022 19:02:02 72.73,-113.66 85.46 2.93 37
16 02/15/2022 19:52:09 -72.72, 53.75 94.56 02/15/2022 19:52:44 -72.74, 53.70 94.54 3.21 35
17 02/15/2022 20:42:55 72.72,-138.95 85.43 02/15/2022 20:43:24 72.70,-139.04 85.42 3.47 29
18 02/15/2022 21:33:39 -72.72, 28.37 94.59 02/15/2022 21:34:06 -72.72, 28.32 94.59 1.84 27
19 02/15/2022 22:24:25 72.72,-164.32 85.41 02/15/2022 22:24:45 72.73,-164.32 85.42 1.54 20
20 02/15/2022 23:15:09 -72.72, 2.99 94.61 02/15/2022 23:15:28 -72.70, 2.93 94.63 3.00 19
21 02/16/2022 00:05:55 72.72, 170.30 85.39 02/16/2022 00:06:07 72.71, 170.29 85.38 1.01 12
22 02/16/2022 00:56:39 -72.72, -22.38 94.63 02/16/2022 00:56:49 -72.73, -22.35 94.63 1.46 10
23 02/16/2022 01:47:25 72.72, 144.92 85.36 02/16/2022 01:47:29 72.69, 144.91 85.33 3.55 4
24 02/16/2022 02:38:09 -72.72, -47.76 94.66 02/16/2022 02:38:11 -72.70, -47.73 94.67 1.70 2
25 02/16/2022 03:28:55 72.72, 119.55 85.34 02/16/2022 03:28:50 72.72, 119.63 85.33 2.71 5
26 02/16/2022 04:19:38 -72.67, -73.03 94.74 02/16/2022 04:19:33 -72.68, -73.12 94.71 3.37 5
27 02/16/2022 05:10:24 72.67, 94.27 85.26 02/16/2022 05:10:12 72.70, 94.24 85.29 2.94 12
28 02/16/2022 06:01:08 -72.67, -98.41 94.76 02/16/2022 06:00:55 -72.66, -98.50 94.76 3.35 13
29 02/16/2022 06:51:54 72.67, 68.90 85.24 02/16/2022 06:51:34 72.67, 68.86 85.25 1.37 20
30 02/16/2022 07:42:38 -72.67,-123.78 94.78 02/16/2022 07:42:16 -72.69,-123.78 94.76 2.27 22
31 02/16/2022 08:33:24 72.67, 43.52 85.21 02/16/2022 08:32:56 72.65, 43.47 85.20 2.84 28
32 02/16/2022 09:24:08 -72.67,-149.16 94.81 02/16/2022 09:23:38 -72.67,-149.17 94.80 0.42 30
33 02/16/2022 10:14:54 72.67, 18.15 85.19 02/16/2022 10:14:17 72.68, 18.19 85.20 1.73 37
34 02/16/2022 11:05:38 -72.67,-174.53 94.83 02/16/2022 11:05:00 -72.65,-174.55 94.84 2.80 38
35 02/16/2022 11:56:24 72.67, -7.23 85.17 02/16/2022 11:55:39 72.66, -7.19 85.16 2.12 45
36 02/16/2022 12:47:08 -72.67, 160.09 94.85 02/16/2022 12:46:21 -72.68, 160.17 94.84 2.56 47
37 02/16/2022 13:37:53 72.62, -32.50 85.09 02/16/2022 13:37:01 72.64, -32.58 85.12 2.86 52
38 02/16/2022 14:28:38 -72.67, 134.71 94.88 02/16/2022 14:27:43 -72.65, 134.78 94.89 3.06 55
39 02/16/2022 15:19:23 72.62, -57.88 85.06 02/16/2022 15:18:23 72.61, -57.96 85.07 3.00 60
40 02/16/2022 16:10:07 -72.62, 109.44 94.96 02/16/2022 16:09:05 -72.63, 109.40 94.93 1.80 62
41 02/16/2022 17:00:53 72.63, -83.25 85.04 02/16/2022 16:59:44 72.64, -83.24 85.07 2.05 69
42 02/16/2022 17:51:37 -72.62, 84.07 94.98 02/16/2022 17:50:27 -72.61, 84.01 94.97 2.27 70
43 02/16/2022 18:42:21 72.52,-108.42 84.90 02/16/2022 18:41:08 72.52,-108.83 84.94 13.70 73
44 02/16/2022 19:33:03 -72.47, 59.00 95.17 02/16/2022 19:31:50 -72.49, 58.43 95.11 19.27 73
45 02/16/2022 20:23:44 72.22,-133.19 84.54 02/16/2022 20:22:34 72.24,-134.72 84.68 51.99 70
46 02/16/2022 21:14:27 -72.17, 34.22 95.53 02/16/2022 21:13:17 -72.21, 32.54 95.37 57.46 70
47 02/16/2022 22:05:08 71.91,-157.98 84.18 02/16/2022 22:04:02 71.91,-160.69 84.37 93.64 66
48 02/16/2022 22:55:51 -71.86, 9.43 95.89 02/16/2022 22:54:45 -71.88, 6.58 95.68 98.82 66



Historial Predications of SNOs between NOAA-20 and METOP-B
